#timestamp,LO_Frequency,Hit,StdDev 
1509926415.9,286046986.1,Y
1509926435.7,286046993.5,P
1509926455.5,286046995.8,P
1509926475.4,286046996.7,N
1509926495.2,286046996.8,N
1509926515.0,286046995.9,N
1509926515.9,286046995.9,N
1509926535.8,286046998.8,N
1509926555.6,286046998.3,N
1509926575.4,286046997.2,N
1509926595.2,286046997.0,N
1509926615.1,286046993.8,Y
1509926616.0,286046993.8,P
1509926635.8,286046998.6,N
1509926655.7,286046998.5,N
1509926675.5,286047000.6,N
1509926695.3,286046999.0,N
1509926715.2,286047000.8,N
1509926735.9,286047004.4,N
1509926755.7,286047000.4,N
1509926775.6,286047001.6,N
1509926795.4,286047002.1,N
1509926815.2,286046999.7,N
1509926835.1,286047002.4,N
1509926836.0,286047002.4,N
1509926855.8,286047003.5,N
1509926875.6,286047003.2,N
1509926895.5,286047003.4,N
1509926915.3,286047003.7,N
1509926935.1,286047005.3,N
1509926955.9,286047006.8,N
1509926975.7,286047006.3,N
1509926995.5,286047007.4,N
1509927015.4,286047007.6,N
1509927035.2,286047006.8,N
1509927055.0,286047008.9,N
1509927055.9,286047008.9,N
1509927075.8,286047007.4,N
1509927095.6,286047005.2,N
1509927115.4,286047005.2,N
1509927135.3,286047004.1,N
1509927155.1,286047004.9,N
1509927156.0,286047004.9,N
1509927175.8,286047009.2,Y
1509927195.7,286047002.9,P
1509927215.5,286047005.8,P
1509927235.3,286047004.2,P
1509927255.2,286047001.9,N
1509927275.9,286047002.1,N
1509927295.7,286047000.0,N
1509927315.6,286047000.6,N
1509927335.4,286047000.9,N
1509927355.2,286046997.1,N
1509927375.1,286047000.7,N
1509927376.0,286047000.7,N
1509927395.8,286047006.8,Y
1509927415.6,286047006.0,P
1509927435.5,286047004.1,N
1509927455.3,286047002.7,N
1509927475.1,286047003.3,N
1509927495.9,286047005.0,Y
1509927515.7,286047005.0,P
1509927535.5,286047007.3,P
1509927555.4,286047008.8,P
1509927575.2,286047007.8,Y
1509927595.1,286047001.1,P
1509927596.0,286047001.1,N
1509927615.8,286046998.1,N
1509927635.6,286046998.5,N
1509927655.5,286046996.7,N
1509927675.3,286046996.8,N
1509927695.1,286047003.8,N
1509927715.9,286047005.1,N
1509927735.7,286047009.0,N
1509927755.5,286047008.0,N
1509927775.4,286047011.3,N
1509927795.2,286047012.4,N
1509927815.0,286047013.8,N
1509927815.9,286047013.8,N
1509927835.8,286047009.5,N
1509927855.6,286047014.0,N
1509927875.4,286047012.8,N
1509927895.3,286047014.6,N
1509927915.1,286047009.4,N
1509927916.0,286047009.4,N
1509927935.8,286047010.2,N
1509927955.7,286047011.1,N
1509927975.5,286047011.2,N
1509927995.3,286047009.5,N
1509928015.1,286047010.8,N
1509928035.9,286047011.1,N
1509928055.7,286047011.3,N
1509928075.5,286047009.9,N
1509928095.4,286047012.2,N
1509928115.2,286047012.1,N
1509928135.0,286047011.8,N
1509928136.0,286047011.8,N
1509928155.8,286047010.9,N
1509928175.6,286047013.7,N
1509928195.5,286047009.4,N
1509928215.3,286047005.7,N
1509928235.1,286046998.1,N
1509928255.9,286047002.8,N
1509928275.7,286047000.8,N
1509928295.5,286046994.0,N
1509928315.4,286046994.2,N
1509928335.2,286046994.1,N
1509928355.0,286046990.3,N
1509928355.9,286046990.3,N
1509928375.8,286046993.9,N
1509928395.6,286046995.0,N
1509928415.4,286046999.6,N
1509928435.2,286046996.9,N
1509928455.1,286046998.5,N
1509928456.0,286046998.5,N
1509928475.8,286046997.1,N
1509928495.7,286046996.0,N
1509928515.5,286046996.0,N
1509928535.3,286046995.8,N
1509928555.1,286046997.5,N
1509928575.9,286046995.9,N
1509928595.7,286046996.1,N
1509928615.5,286046996.5,N
1509928635.4,286047000.2,N
1509928655.2,286046999.2,N
1509928675.0,286046998.4,N
1509928676.0,286046998.4,N
1509928695.8,286047002.6,N
1509928715.6,286047004.2,N
1509928735.4,286047003.3,N
1509928755.3,286047004.8,N
1509928775.1,286047007.2,N
1509928795.8,286047006.9,N
1509928815.7,286047007.0,N
1509928835.5,286047004.9,N
1509928855.3,286047006.9,N
1509928875.2,286047003.7,N
1509928895.0,286047001.4,N
1509928895.9,286047001.4,N
1509928915.8,286047005.3,N
1509928935.6,286047004.3,N
1509928955.4,286047007.1,N
1509928975.2,286047004.4,N
1509928995.1,286047001.7,N
1509928996.0,286047001.7,N
1509929015.8,286047003.1,N
1509929035.7,286047001.7,N
1509929055.5,286047003.5,N
1509929075.3,286047005.8,N
1509929095.2,286047006.3,N
1509929115.9,286047011.6,Y
1509929135.7,286047005.4,P
1509929155.6,286047003.1,N
1509929175.4,286047002.2,N
1509929195.2,286047002.7,N
1509929215.1,286047001.0,N
1509929216.0,286047001.0,N
1509929235.8,286047001.7,N
1509929255.6,286047003.4,N
1509929275.5,286046999.8,N
1509929295.3,286046999.7,N
1509929315.1,286046998.7,N
1509929335.9,286046996.9,N
1509929355.7,286046999.4,N
1509929375.5,286046993.8,N
1509929395.4,286046996.4,N
1509929415.2,286046997.0,N
1509929435.0,286046996.4,N
1509929435.9,286046996.4,N
1509929455.8,286046991.9,N
1509929475.6,286046990.7,N
1509929495.4,286046993.9,N
1509929515.3,286046994.9,N
1509929535.1,286047000.4,N
1509929536.0,286047000.4,N
1509929555.8,286046998.6,N
1509929575.7,286047001.4,N
1509929595.5,286047008.8,N
1509929615.3,286047005.3,N
1509929635.2,286047000.2,N
1509929655.9,286047000.6,N
1509929675.7,286047000.8,N
1509929695.6,286046999.3,N
1509929715.4,286046998.9,N
1509929735.2,286046999.6,N
1509929755.1,286046999.7,N
1509929756.0,286046999.7,N
1509929775.8,286047001.3,N
1509929795.6,286047007.5,N
1509929815.5,286047007.5,N
1509929835.3,286047008.2,N
1509929855.1,286047008.1,N
1509929875.9,286047006.3,N
1509929895.7,286047008.6,N
1509929915.5,286047011.8,N
1509929935.4,286047011.9,N
1509929955.2,286047010.2,N
1509929975.0,286047010.7,N
1509929975.9,286047010.7,N
1509929995.8,286047010.8,N
